Location: Proctor
(47.8934°N, 114.3048°W)
Time: 21:43:39
(UTC+00:00)

AO-92 - Pass Details

Date: 09 July 2022
Orbit: 469 x 481 km, 97.4° (Epoch: 13 August)

Event Time Altitude Azimuth Distance (km) Brightness Sun altitude
Exits shadow 06:43:29 12° 241° (WSW) 1,564 ? -18.5°
Maximum altitude 06:45:04 15° 269° (W) 1,405 ? -18.6°
Drops below altitude 10° 06:47:08 10° 304° (NW) 1,670 ? -18.7°
Sets 06:49:59 0° 330° (NNW) 2,559 ? -18.8°
